User: anonymous
Location: Brno
(49.2000°N, 16.6330°E)
Time: 18:29:21
(UTC+02:00)
Language:

Meteor 1-4 Rocket - Orbit

View from above orbital plane
View from above orbital plane
View from above satellite
View from above satellite

Ground track
Ground track

The orbit data is extracted from the following two-line orbital elements,

1 04394U 70037B   14274.72974642  .00008155  00000-0  35500-3 0  6943
2 04394 081.2433 092.3418 0046628 250.4234 109.1960 15.21089678413906
Epoch (UTC): 01 October 2014 17:30:50
Eccentricity: 0.0046628
inclination: 81.2433°
perigee height: 470 km
apogee height: 534 km
right ascension of ascending node: 92.3418°
argument of perigee: 250.4234°
revolutions per day: 15.21089678
mean anomaly at epoch: 109.1960°
orbit number at epoch: 41390

The dashed part of the orbit path shows where the satellite is in the earth's shadow,  

DLR